| time (UTC) | temp C | wind direction | speed KPH | gust KPH | rain 1hr cm | rain 24hr cm | rain mn cm | humidity % | barometer mb |
| 20260510184016 | 14 | 0.0 | 3.2 | 0.00 | 0.00 | 0.00 | 76 | 1019.3 | |
| 20260510183016 | 14 | 0.0 | 1.6 | 0.00 | 0.00 | 0.00 | 74 | 1019.0 | |
| 20260510182016 | 14 | 0.0 | 1.6 | 0.00 | 0.00 | 0.00 | 76 | 1018.9 | |
| 20260510181016 | 14 | 0.0 | 3.2 | 0.00 | 0.00 | 0.00 | 77 | 1018.9 | |
| 20260510180016 | 14 | 0.0 | 3.2 | 0.00 | 0.00 | 0.00 | 76 | 1018.9 | |
| 20260510175017 | 13 | 0.0 | 3.2 | 0.00 | 0.00 | 0.00 | 76 | 1019.2 | |
| 20260510174057 | 13 | 0.0 | 1.6 | 0.00 | 0.00 | 0.00 | 76 | 1018.8 | |
| 20260510173036 | 13 | 0.0 | 1.6 | 0.00 | 0.00 | 0.00 | 76 | 1019.0 | |
| 20260510172037 | 13 | 0.0 | 3.2 | 0.00 | 0.00 | 0.00 | 76 | 1018.8 | |
| 20260510171037 | 13 | 0.0 | 3.2 | 0.00 | 0.00 | 0.00 | 78 | 1019.0 | |
| 20260510170036 | 13 | 0.0 | 1.6 | 0.00 | 0.00 | 0.00 | 78 | 1018.8 | |
| 20260510165016 | 13 | 0.0 | 0.0 | 0.00 | 0.00 | 0.00 | 79 | 1018.3 | |
| 20260510164016 | 12 | 0.0 | 4.8 | 0.00 | 0.00 | 0.00 | 79 | 1018.0 | |
| 20260510163016 | 12 | 0.0 | 3.2 | 0.00 | 0.00 | 0.00 | 81 | 1018.1 | |
| 20260510162016 | 12 | 0.0 | 1.6 | 0.00 | 0.00 | 0.00 | 84 | 1018.4 | |
| 20260510161036 | 12 | 0.0 | 3.2 | 0.00 | 0.00 | 0.00 | 84 | 1018.3 | |
| 20260510160016 | 12 | 0.0 | 4.8 | 0.00 | 0.00 | 0.00 | 85 | 1017.9 | |
| 20260510155016 | 12 | 0.0 | 0.0 | 0.00 | 0.00 | 0.00 | 87 | 1018.2 | |
| 20260510154056 | 12 | 0.0 | 1.6 | 0.00 | 0.00 | 0.00 | 88 | 1017.9 | |
| 20260510153016 | 11 | 0.0 | 0.0 | 0.00 | 0.00 | 0.00 | 91 | 1017.7 | |
| 20260510152016 | 11 | 0.0 | 0.0 | 0.00 | 0.00 | 0.00 | 93 | 1017.8 | |
| 20260510151017 | 11 | 0.0 | 0.0 | 0.00 | 0.00 | 0.00 | 94 | 1018.1 | |
| 20260510150016 | 10 | 0.0 | 0.0 | 0.00 | 0.00 | 0.00 | 95 | 1017.9 | |
| 20260510145016 | 10 | 0.0 | 0.0 | 0.00 | 0.00 | 0.00 | 95 | 1018.0 | |
| 20260510144016 | 10 | 0.0 | 0.0 | 0.00 | 0.00 | 0.00 | 95 | 1018.0 | |
| 20260510143016 | 10 | 0.0 | 0.0 | 0.00 | 0.00 | 0.00 | 95 | 1017.8 | |
| 20260510142016 | 10 | 0.0 | 0.0 | 0.00 | 0.00 | 0.00 | 95 | 1017.5 | |
| 20260510141016 | 9 | 0.0 | 0.0 | 0.00 | 0.00 | 0.00 | 96 | 1017.1 | |
| 20260510140016 | 9 | 0.0 | 0.0 | 0.00 | 0.00 | 0.00 | 95 | 1017.5 | |
| 20260510135016 | 8 | 0.0 | 0.0 | 0.00 | 0.00 | 0.00 | 96 | 1017.6 | |
| 20260510134016 | 8 | 0.0 | 0.0 | 0.00 | 0.00 | 0.00 | 95 | 1017.7 | |
| 20260510133016 | 8 | 0.0 | 0.0 | 0.00 | 0.00 | 0.00 | 95 | 1018.0 | |
| 20260510132016 | 8 | 0.0 | 0.0 | 0.00 | 0.00 | 0.00 | 95 | 1018.1 | |
| 20260510131016 | 8 | 0.0 | 0.0 | 0.00 | 0.00 | 0.00 | 95 | 1017.9 | |
| 20260510130015 | 8 | 0.0 | 0.0 | 0.00 | 0.00 | 0.00 | 95 | 1018.1 | |
| 20260510125016 | 8 | 0.0 | 0.0 | 0.00 | 0.00 | 0.00 | 95 | 1017.8 | |
| 20260510124017 | 8 | 0.0 | 0.0 | 0.00 | 0.00 | 0.00 | 95 | 1017.9 | |
| 20260510123015 | 8 | 0.0 | 0.0 | 0.00 | 0.00 | 0.00 | 95 | 1017.7 | |
| 20260510122036 | 8 | 0.0 | 0.0 | 0.00 | 0.00 | 0.00 | 95 | 1017.6 | |
| 20260510121016 | 8 | 0.0 | 0.0 | 0.00 | 0.00 | 0.00 | 95 | 1017.5 | |
| 20260510120016 | 8 | 0.0 | 0.0 | 0.00 | 0.00 | 0.00 | 94 | 1017.3 | |
| 20260510115015 | 9 | 0.0 | 0.0 | 0.00 | 0.00 | 0.00 | 94 | 1017.7 | |
| 20260510114015 | 9 | 0.0 | 0.0 | 0.00 | 0.00 | 0.00 | 94 | 1017.8 | |
| 20260510113036 | 9 | 0.0 | 0.0 | 0.00 | 0.00 | 0.00 | 94 | 1017.6 | |
| 20260510112036 | 9 | 0.0 | 0.0 | 0.00 | 0.00 | 0.00 | 94 | 1017.5 | |
| 20260510111016 | 10 | 0.0 | 0.0 | 0.00 | 0.00 | 0.00 | 94 | 1017.4 | |
| 20260510110015 | 10 | 0.0 | 0.0 | 0.00 | 0.00 | 0.00 | 94 | 1017.4 | |
| 20260510105015 | 10 | 0.0 | 0.0 | 0.00 | 0.00 | 0.00 | 94 | 1017.4 | |
| 20260510104016 | 10 | 0.0 | 0.0 | 0.00 | 0.00 | 0.00 | 94 | 1017.4 | |
| 20260510103015 | 10 | 0.0 | 0.0 | 0.00 | 0.00 | 0.00 | 94 | 1017.3 | |
| 20260510102015 | 10 | 0.0 | 0.0 | 0.00 | 0.00 | 0.00 | 93 | 1017.2 | |
| 20260510101015 | 10 | 0.0 | 0.0 | 0.00 | 0.00 | 0.00 | 93 | 1017.1 | |
| 20260510100015 | 10 | 0.0 | 0.0 | 0.00 | 0.00 | 0.00 | 93 | 1016.9 | |
| 20260510095015 | 10 | 0.0 | 0.0 | 0.00 | 0.00 | 0.00 | 92 | 1016.8 | |
| 20260510094015 | 10 | 0.0 | 0.0 | 0.00 | 0.00 | 0.00 | 92 | 1016.8 | |
| 20260510093035 | 10 | 0.0 | 0.0 | 0.00 | 0.00 | 0.00 | 92 | 1016.6 | |
| 20260510092015 | 10 | 0.0 | 0.0 | 0.00 | 0.00 | 0.00 | 92 | 1016.5 | |
| 20260510091017 | 10 | 0.0 | 0.0 | 0.00 | 0.00 | 0.00 | 92 | 1016.5 | |
| 20260510090016 | 10 | 0.0 | 0.0 | 0.00 | 0.00 | 0.00 | 91 | 1016.4 | |
| 20260510085017 | 10 | 0.0 | 0.0 | 0.00 | 0.00 | 0.00 | 91 | 1016.4 | |
| 20260510084015 | 11 | 0.0 | 0.0 | 0.00 | 0.00 | 0.00 | 91 | 1016.4 | |
| 20260510083017 | 11 | 0.0 | 0.0 | 0.00 | 0.00 | 0.00 | 91 | 1016.4 | |
| 20260510082017 | 11 | 0.0 | 0.0 | 0.00 | 0.00 | 0.00 | 90 | 1016.3 | |
| 20260510081017 | 11 | 0.0 | 0.0 | 0.00 | 0.00 | 0.00 | 90 | 1016.4 | |
| 20260510080017 | 11 | 0.0 | 0.0 | 0.00 | 0.00 | 0.00 | 90 | 1016.6 | |
| 20260510075017 | 11 | 0.0 | 0.0 | 0.00 | 0.00 | 0.00 | 90 | 1016.5 | |
| 20260510074017 | 11 | 0.0 | 0.0 | 0.00 | 0.00 | 0.00 | 89 | 1016.5 | |
| 20260510073017 | 11 | 0.0 | 0.0 | 0.00 | 0.00 | 0.00 | 89 | 1016.5 | |
| 20260510072017 | 12 | 0.0 | 0.0 | 0.00 | 0.00 | 0.00 | 88 | 1016.4 | |
| 20260510071017 | 12 | 0.0 | 0.0 | 0.00 | 0.00 | 0.00 | 88 | 1016.5 | |
| 20260510070017 | 12 | 0.0 | 0.0 | 0.00 | 0.00 | 0.00 | 87 | 1016.5 | |
| 20260510065017 | 12 | 0.0 | 0.0 | 0.00 | 0.00 | 0.00 | 87 | 1016.7 | |
| 20260510064037 | 12 | 0.0 | 0.0 | 0.00 | 0.00 | 0.00 | 87 | 1016.7 | |
| 20260510063017 | 12 | 0.0 | 0.0 | 0.00 | 0.00 | 0.00 | 87 | 1016.7 | |
| 20260510062017 | 12 | 0.0 | 0.0 | 0.00 | 0.00 | 0.00 | 86 | 1016.5 | |
| 20260510061017 | 12 | 0.0 | 0.0 | 0.00 | 0.00 | 0.00 | 86 | 1016.4 | |
| 20260510060017 | 13 | 0.0 | 0.0 | 0.00 | 0.00 | 0.00 | 85 | 1016.3 | |
| 20260510055017 | 13 | 0.0 | 0.0 | 0.00 | 0.00 | 0.00 | 84 | 1016.3 | |
| 20260510054038 | 13 | 0.0 | 0.0 | 0.00 | 0.00 | 0.00 | 84 | 1016.3 | |
| 20260510053017 | 13 | 0.0 | 0.0 | 0.00 | 0.00 | 0.00 | 84 | 1016.3 | |
| 20260510052017 | 13 | 0.0 | 0.0 | 0.00 | 0.00 | 0.00 | 82 | 1016.2 | |
| 20260510051017 | 13 | 0.0 | 0.0 | 0.00 | 0.00 | 0.00 | 82 | 1016.3 | |
| 20260510050037 | 14 | 0.0 | 0.0 | 0.00 | 0.00 | 0.00 | 82 | 1016.1 | |
| 20260510045037 | 14 | 0.0 | 0.0 | 0.00 | 0.00 | 0.00 | 82 | 1016.1 | |
| 20260510044017 | 15 | 0.0 | 0.0 | 0.00 | 0.00 | 0.00 | 80 | 1016.0 | |
| 20260510043117 | 15 | 0.0 | 0.0 | 0.00 | 0.00 | 0.00 | 79 | 1016.0 | |
| 20260510042017 | 15 | 0.0 | 0.0 | 0.00 | 0.00 | 0.00 | 79 | 1016.2 | |
| 20260510041017 | 15 | 0.0 | 0.0 | 0.00 | 0.00 | 0.00 | 78 | 1016.1 | |
| 20260510040017 | 15 | 0.0 | 0.0 | 0.00 | 0.00 | 0.00 | 77 | 1016.1 | |
| 20260510035017 | 16 | 0.0 | 0.0 | 0.00 | 0.00 | 0.00 | 76 | 1016.1 | |
| 20260510034017 | 16 | 0.0 | 0.0 | 0.00 | 0.00 | 0.00 | 74 | 1016.1 | |
| 20260510033017 | 16 | 0.0 | 0.0 | 0.00 | 0.00 | 0.00 | 74 | 1016.2 | |
| 20260510032017 | 17 | 0.0 | 0.0 | 0.00 | 0.00 | 0.00 | 73 | 1016.3 | |
| 20260510031017 | 17 | 0.0 | 0.0 | 0.00 | 0.00 | 0.00 | 71 | 1016.3 | |
| 20260510030037 | 17 | 0.0 | 0.0 | 0.00 | 0.00 | 0.00 | 71 | 1016.3 | |
| 20260510025016 | 17 | 0.0 | 0.0 | 0.00 | 0.00 | 0.00 | 70 | 1016.4 | |
| 20260510024017 | 18 | 0.0 | 0.0 | 0.00 | 0.00 | 0.00 | 67 | 1016.3 | |
| 20260510023036 | 18 | 0.0 | 0.0 | 0.00 | 0.00 | 0.00 | 66 | 1016.4 | |
| 20260510022017 | 18 | 0.0 | 0.0 | 0.00 | 0.00 | 0.00 | 66 | 1016.5 | |
| 20260510021037 | 18 | 0.0 | 1.6 | 0.00 | 0.00 | 0.00 | 65 | 1016.6 | |
| 20260510020016 | 18 | 0.0 | 3.2 | 0.00 | 0.00 | 0.00 | 64 | 1016.9 | |
| 20260510015017 | 18 | 0.0 | 1.6 | 0.00 | 0.00 | 0.00 | 63 | 1016.8 | |
| 20260510014017 | 18 | 0.0 | 4.8 | 0.00 | 0.00 | 0.00 | 63 | 1016.9 | |
| 20260510013016 | 18 | 0.0 | 1.6 | 0.00 | 0.00 | 0.00 | 62 | 1017.0 | |
| 20260510012017 | 19 | 0.0 | 3.2 | 0.00 | 0.00 | 0.00 | 60 | 1017.1 | |
| 20260510011017 | 19 | 0.0 | 3.2 | 0.00 | 0.00 | 0.00 | 61 | 1017.0 | |
| 20260510010017 | 19 | 0.0 | 3.2 | 0.00 | 0.00 | 0.00 | 59 | 1017.3 | |
| 20260510005017 | 19 | 0.0 | 3.2 | 0.00 | 0.00 | 0.00 | 60 | 1017.3 | |
| 20260510004036 | 20 | 0.0 | 1.6 | 0.00 | 0.00 | 0.00 | 59 | 1017.4 | |
| 20260510003017 | 20 | 158 | 1.6 | 6.4 | 0.00 | 0.00 | 0.00 | 59 | 1017.5 |
| 20260510002017 | 20 | 0.0 | 3.2 | 0.00 | 0.00 | 0.00 | 57 | 1017.4 | |
| 20260510001017 | 20 | 0.0 | 4.8 | 0.00 | 0.00 | 0.00 | 57 | 1017.7 | |
| 20260510000016 | 20 | 0.0 | 3.2 | 0.00 | 0.00 | 0.00 | 58 | 1017.7 | |
| 20260509235016 | 20 | 0.0 | 1.6 | 0.00 | 0.00 | 0.00 | 59 | 1017.8 | |
| 20260509234016 | 20 | 0.0 | 4.8 | 0.00 | 0.00 | 0.00 | 58 | 1017.9 | |
| 20260509233016 | 20 | 0.0 | 6.4 | 0.00 | 0.00 | 0.00 | 58 | 1018.0 | |
| 20260509232016 | 20 | 158 | 1.6 | 8.0 | 0.00 | 0.00 | 0.00 | 58 | 1018.1 |
| 20260509231016 | 20 | 225 | 1.6 | 6.4 | 0.00 | 0.00 | 0.00 | 58 | 1018.2 |
| 20260509230017 | 20 | 0.0 | 4.8 | 0.00 | 0.00 | 0.00 | 58 | 1018.3 | |
| 20260509225016 | 20 | 158 | 1.6 | 4.8 | 0.00 | 0.00 | 0.00 | 56 | 1018.6 |
| 20260509224036 | 20 | 0.0 | 4.8 | 0.00 | 0.00 | 0.00 | 56 | 1018.6 | |
| 20260509223016 | 20 | 158 | 1.6 | 4.8 | 0.00 | 0.00 | 0.00 | 55 | 1018.6 |
| 20260509222036 | 21 | 0.0 | 4.8 | 0.00 | 0.00 | 0.00 | 55 | 1018.6 | |
| 20260509221017 | 20 | 0.0 | 3.2 | 0.00 | 0.00 | 0.00 | 55 | 1018.7 | |
| 20260509220056 | 20 | 158 | 1.6 | 6.4 | 0.00 | 0.00 | 0.00 | 54 | 1018.7 |
| 20260509215016 | 20 | 158 | 1.6 | 6.4 | 0.00 | 0.00 | 0.00 | 56 | 1018.8 |
| 20260509214016 | 20 | 225 | 1.6 | 8.0 | 0.00 | 0.00 | 0.00 | 55 | 1018.9 |
| 20260509213016 | 20 | 225 | 1.6 | 6.4 | 0.00 | 0.00 | 0.00 | 54 | 1019.0 |
| 20260509212016 | 20 | 0.0 | 3.2 | 0.00 | 0.00 | 0.00 | 54 | 1019.1 | |
| 20260509211016 | 20 | 158 | 1.6 | 4.8 | 0.00 | 0.00 | 0.00 | 55 | 1019.1 |
| 20260509210037 | 20 | 225 | 1.6 | 4.8 | 0.00 | 0.00 | 0.00 | 55 | 1019.2 |
| 20260509205016 | 20 | 158 | 1.6 | 6.4 | 0.00 | 0.00 | 0.00 | 55 | 1019.2 |
| 20260509204016 | 20 | 158 | 1.6 | 4.8 | 0.00 | 0.00 | 0.00 | 56 | 1019.3 |
| 20260509203036 | 19 | 158 | 1.6 | 4.8 | 0.00 | 0.00 | 0.00 | 57 | 1019.5 |
| 20260509202016 | 20 | 0.0 | 3.2 | 0.00 | 0.00 | 0.00 | 57 | 1019.6 | |
| 20260509201016 | 20 | 0.0 | 1.6 | 0.00 | 0.00 | 0.00 | 59 | 1019.8 | |
| 20260509200016 | 19 | 0.0 | 1.6 | 0.00 | 0.00 | 0.00 | 62 | 1020.0 | |
| 20260509195016 | 18 | 0.0 | 4.8 | 0.00 | 0.00 | 0.00 | 61 | 1020.3 | |
| 20260509194016 | 18 | 0.0 | 4.8 | 0.00 | 0.00 | 0.00 | 63 | 1020.4 | |
| 20260509193037 | 18 | 225 | 1.6 | 6.4 | 0.00 | 0.00 | 0.00 | 62 | 1020.5 |
| 20260509192017 | 18 | 158 | 1.6 | 8.0 | 0.00 | 0.00 | 0.00 | 64 | 1020.6 |
| 20260509191036 | 18 | 0.0 | 3.2 | 0.00 | 0.00 | 0.00 | 64 | 1020.6 | |
| 20260509190016 | 17 | 0.0 | 3.2 | 0.00 | 0.00 | 0.00 | 64 | 1020.7 | |
| 20260509185016 | 17 | 158 | 1.6 | 6.4 | 0.00 | 0.00 | 0.00 | 64 | 1020.8 |